Regional Weather Roundup
Issued by NWS

Home | Current Version | Previous Version | Text Only | Print | Product List | Glossary Off
Versions: 1 2 3 4 5 6 7 8 9 10 11 12 13 14 15 16 17 18 19 20 21 22 23 24 25 26 27 28 29 30 31 32 33 34 35 36 37 38 39 40 41 42 43 44 45 46 47 48 49 50

000
ASUS43 KTOP 241408
RWRKS

WEATHER ROUNDUP FOR KANSAS
NATIONAL WEATHER SERVICE GOODLAND KS
900 AM CDT THU JUL 24 2014

NOTE:  "FAIR" INDICATES FEW OR NO CLOUDS BELOW 12,000 FEET WITH NO
SIGNIFICANT WEATHER AND/OR OBSTRUCTIONS TO VISIBILITY.

KSZ001>006-013>018-027>032-041>047-241500-
NORTHWEST KANSAS

CITY           SKY/WX    TMP DP  RH WIND       PRES   REMARKS
GOODLAND       SUNNY     73  66  78 SW9       30.09S
HAYS           SUNNY     54 N/A N/A SE13      30.08F
HILL CITY      SUNNY     75  66  73 SE9       30.06F
RUSSELL        SUNNY     76  66  71 SE15      30.08S
$$

KSZ061>065-074>080-084>089-241500-
SOUTHWEST KANSAS

CITY           SKY/WX    TMP DP  RH WIND       PRES   REMARKS
DODGE CITY     MOSUNNY   76  70  82 S14       30.11S HAZE
ELKHART          N/A     79  58  48 SW9         N/A
GARDEN CITY    SUNNY     73  69  87 S10       30.09F FOG
GREAT BEND     SUNNY     75  66  73 SE16      30.09S
LIBERAL        SUNNY     79  66  65 SW13      30.13F
$$

KSZ066>073-081>083-090>101-241500-
SOUTHEAST KANSAS

CITY           SKY/WX    TMP DP  RH WIND       PRES   REMARKS
CHANUTE        SUNNY     74  64  71 E8        30.13R
COFFEYVILLE    SUNNY     75  68  78 E9        30.11R
HUTCHINSON     SUNNY     75  65  70 SE12      30.11S
MEDICINE LODGE   N/A     75  68  78 SE10      30.09S
NEWTON         SUNNY     73  61  64 SE15      30.16R
PARSONS        SUNNY     74  66  76 VRB6      30.13R
WICHITA INTL   SUNNY     75  66  73 SE13      30.11S
WICHITA JABRA  SUNNY     74  66  76 SE13      30.11S
WICHITA MCCONL SUNNY     74  69  83 E10       30.11S
WINFIELD       SUNNY     74  67  78 E12       30.12R
$$

KSZ007>012-019>026-033>040-048>060-102>105-241500-
NORTHEAST KANSAS

CITY           SKY/WX    TMP DP  RH WIND       PRES   REMARKS
CONCORDIA      SUNNY     72  64  76 SE20      30.10F
EMPORIA        SUNNY     71  64  78 SE12      30.15R
LAWRENCE       SUNNY     72  62  71 SE8       30.15S
MANHATTAN      SUNNY     74  62  66 SE10      30.13S
OLATHE IND     SUNNY     72  60  66 E10       30.16R
OLATHE EXE     SUNNY     71  60  68 SE13      30.15R
SALINA         SUNNY     76  64  66 SE12      30.11S
TOPEKA BILLARD SUNNY     74  62  66 SE8       30.14F
TOPEKA FORBES  SUNNY     73  62  68 SE7       30.14S
$$



USA.gov is the U.S. government's official web portal to all federal, state and local government web resources and services.